Location: Hawks Ness
(60.2333°N, 1.1667°W)
Time: 00:06:35
(UTC+00:00)

Cosmos 1814 Rocket - Pass Details

Date: 22 October 2019
Orbit: 744 x 788 km, 74.1° (Epoch: 21 November)

Event Time Altitude Azimuth Distance (km) Brightness Sun altitude
Exits shadow 04:59:14 -1° 326° (NNW) 3,370 7.1 -15.7°
Rises 04:59:26 0° 326° (NNW) 3,290 7.0 -15.7°
Reaches altitude 10° 05:01:50 10° 327° (NNW) 2,361 6.3 -15.4°
Maximum altitude 05:07:14 88° 240° (WSW) 798 4.0 -14.7°
Drops below altitude 10° 05:12:36 10° 150° (SSE) 2,350 6.9 -14.0°
Sets 05:14:59 0° 151° (SSE) 3,273 7.7 -13.7°
